BEIDOU-2 IGSO-6

Last updated on Wed Sep 17 2025 00:02:49 GMT+0000 (Coordinated Universal Time)

1 41434U 16021A 25259.35545721 -.00000146 00000+0 00000+0 0 9991 2 41434 59.8462 40.7710 0056323 227.8521 310.4330 1.00270006 34734
UTC large
Height (km)
Speed (km/s)
/
Latitude / Longitude
Inclination (degrees)
Orbital Period (minutes)
Azimuth
Elevation
Range (km)
Doppler Factor

Next 0 passes for location: London (51.5072 / 0.1276)

Sorry there are no passes over London.